Owen Roberts, Cayman Islands

9:37 PM EST on March 25, 2017 (GMT -0500)
Roberts International

Weather History for MWCR - May, 2014

Change the Weather History Date:

Sunday, May 4, 2014

  Actual Average Record
Temperature  
Mean Temperature 82 °F -  
Max Temperature 86 °F 85 °F 91 °F (2003)
Min Temperature 78 °F 77 °F 72 °F (2015)
Cooling Degree Days 17    
Growing Degree Days 32 (Base 50)    
Moisture  
Dew Point 76 °F    
Average Humidity 79    
Maximum Humidity 94    
Minimum Humidity 64    
Precipitation  
Precipitation 0.00 in - - ()
Sea Level Pressure  
Sea Level Pressure 30.01 in    
Wind  
Wind Speed 3 mph ()    
Max Wind Speed 10 mph    
Max Gust Speed -    
Visibility 6.1 miles    
Events Rain    
Averages and records for this station are not official NWS values.
T = Trace of Precipitation, MM = Missing Value Source: Averaged Metar Reports

Daily Weather History Graph

Daily Weather History Graph

Search for Another Location

Airport or City:

Trip Planner

Search our weather history database for the weather conditions in past years. The results will help you decide how hot, cold, wet, or windy it might be!

Date:

Astronomy

May. 04, 2014 Rise Set
Actual Time 5:55 AM EST 6:49 PM EST
Civil Twilight 5:32 AM EST 7:12 PM EST
Nautical Twilight 5:05 AM EST 7:39 PM EST
Astronomical Twilight 4:37 AM EST 8:07 PM EST
Moon 10:21 AM EST (5/4) 11:33 PM EST (5/4)
Length of Visible Light 13h 39m
Length of Day
12h 53m
Waxing Crescent, 28% of the Moon is Illuminated
May 4
Waxing Crescent
May 6
First Quarter
May 14
Full
May 21
Last Quarter
May 28
New

Hourly Weather History & Observations

Time (EST) Temp. Heat Index Dew Point Humidity Pressure Visibility Wind Dir Wind Speed Gust Speed Precip Events Conditions
5:50 AM 78.8 °F - 77.0 °F 94% 30.01 in 6.2 mi Calm Calm - N/A   Partly Cloudy
6:52 AM 78.8 °F - 75.2 °F 89% 30.04 in 6.2 mi Calm Calm - N/A Rain Light Rain Showers
7:00 AM 78 °F - 76 °F 91% 30.04 in 6 mi Calm Calm - - Rain Light Rain Showers
7:58 AM 80.6 °F 87.1 °F 77.0 °F 89% 30.04 in 5.6 mi ENE 3.5 mph - N/A   Scattered Clouds
8:50 AM 82.4 °F 90.9 °F 77.0 °F 84% 30.04 in 6.2 mi Calm Calm - N/A   Scattered Clouds
9:51 AM 84.2 °F 94.1 °F 77.0 °F 79% 30.04 in 6.2 mi SSE 9.2 mph - N/A   Scattered Clouds
10:50 AM 84.2 °F 92.3 °F 75.2 °F 74% 30.04 in 6.2 mi SE 10.4 mph - N/A   Partly Cloudy
11:53 AM 86.0 °F 95.1 °F 75.2 °F 70% 30.04 in 6.2 mi SSE 10.4 mph - N/A   Partly Cloudy
12:51 PM 86.0 °F 96.9 °F 77.0 °F 74% 30.01 in 6.2 mi South 10.4 mph - N/A   Partly Cloudy
1:00 PM 87 °F - 76 °F 64% 30.03 in 6 mi South 10.4 mph - -   Partly Cloudy
2:00 PM 84.2 °F 94.1 °F 77.0 °F 79% 30.01 in 6.2 mi South 6.9 mph - N/A   Partly Cloudy
3:00 PM 86.0 °F 95.1 °F 75.2 °F 70% 29.98 in 6.2 mi South 5.8 mph - N/A   Partly Cloudy
4:00 PM 84.2 °F 92.3 °F 75.2 °F 74% 29.95 in 6.2 mi South 5.8 mph - N/A   Partly Cloudy
5:00 PM 84.2 °F 92.3 °F 75.2 °F 74% 29.95 in 6.2 mi SSE 4.6 mph - N/A   Partly Cloudy
6:00 PM 84.2 °F 92.3 °F 75.2 °F 74% 29.98 in 6.2 mi Variable 2.3 mph - N/A   Partly Cloudy
7:00 PM 82 °F - 76 °F 77% 29.99 in 6 mi SE 2.3 mph - -   Scattered Clouds
7:00 PM 82.4 °F 89.5 °F 75.2 °F 79% 29.98 in 6.2 mi Variable 2.3 mph - N/A   Partly Cloudy
8:00 PM 82.4 °F 90.9 °F 77.0 °F 84% 30.01 in 6.2 mi Variable 2.3 mph - N/A   Partly Cloudy
9:00 PM 80.6 °F 86.2 °F 75.2 °F 84% 30.01 in 6.2 mi Variable 2.3 mph - N/A   Partly Cloudy
10:00 PM 80.6 °F 86.2 °F 75.2 °F 84% 30.01 in 6.2 mi East 3.5 mph - N/A   Partly Cloudy